Precipitable_Water
1.43 1.39 1.35 1.29 1.25 1.20 1.19 1.24 1.24 1.23 1.22 1.24 1.20 1.21 1.28 1.36 1.39 1.44 1.51 1.56 1.60 1.63 1.61 1.56 1.49 1.46 1.47 1.49 1.49 1.50 1.48 1.49 1.48 1.45 1.49 1.48 1.49 1.52 1.55 1.55 1.55 1.54 1.51 1.46 1.48 1.56 1.56 1.52 1.53 1.57 1.57 1.45 1.43 1.50 1.48 1.51 1.47 1.31 1.26 1.22 1.15 1.19 1.20 1.14 1.02 0.99 1.16 1.34 1.34 1.31 1.34 1.36 1.32 1.41 1.32 1.31 1.35 1.45 1.44 1.39 1.34 1.27 1.25 1.29 1.34
1.68 1.67 1.57 1.36 1.28 1.23 1.22 1.22 1.23 1.26 1.20 1.24 1.21 1.20 1.22 1.28 1.34 1.40 1.40 1.44 1.52 1.57 1.59 1.59 1.52 1.47 1.39 1.38 1.42 1.44 1.45 1.44 1.48 1.46 1.41 1.40 1.42 1.49 1.49 1.51 1.53 1.57 1.56 1.45 1.47 1.51 1.53 1.52 1.52 1.53 1.56 1.51 1.48 1.46 1.48 1.46 1.49 1.43 1.26 1.19 1.14 1.11 1.15 1.05 0.97 0.90 0.86 1.07 1.09 1.18 1.17 1.29 1.18 1.36 1.34 1.37 1.37 1.40 1.35 1.30 1.29 1.30 1.25 1.24 1.24
1.86 1.88 1.84 1.68 1.40 1.33 1.27 1.23 1.23 1.24 1.21 1.23 1.23 1.21 1.21 1.24 1.32 1.31 1.34 1.39 1.42 1.46 1.52 1.53 1.51 1.48 1.42 1.36 1.33 1.37 1.38 1.39 1.41 1.41 1.42 1.39 1.35 1.38 1.45 1.48 1.46 1.45 1.43 1.42 1.43 1.46 1.47 1.53 1.59 1.56 1.53 1.44 1.43 1.44 1.48 1.45 1.47 1.45 1.41 1.31 1.17 1.13 1.12 1.07 0.98 0.91 0.90 0.93 1.06 1.03 1.05 1.12 1.13 1.20 1.32 1.36 1.33 1.29 1.20 1.17 1.23 1.28 1.30 1.30 1.25
1.93 1.86 1.96 2.03 1.73 1.43 1.31 1.26 1.23 1.20 1.19 1.19 1.21 1.22 1.22 1.22 1.29 1.28 1.30 1.34 1.33 1.37 1.41 1.43 1.46 1.44 1.40 1.36 1.31 1.33 1.37 1.37 1.37 1.37 1.37 1.38 1.34 1.31 1.35 1.38 1.41 1.42 1.40 1.40 1.41 1.42 1.42 1.49 1.57 1.59 1.51 1.41 1.40 1.37 1.38 1.42 1.42 1.42 1.43 1.46 1.39 1.31 1.29 1.28 1.24 1.09 1.05 0.95 1.02 1.02 1.09 1.04 1.03 1.09 1.16 1.19 1.13 1.08 1.11 1.16 1.26 1.30 1.31 1.31 1.29
2.01 1.96 2.05 2.11 1.97 1.57 1.43 1.39 1.29 1.19 1.16 1.16 1.17 1.19 1.19 1.21 1.23 1.23 1.27 1.26 1.27 1.32 1.37 1.39 1.35 1.35 1.33 1.31 1.32 1.28 1.31 1.34 1.34 1.33 1.35 1.35 1.34 1.31 1.29 1.31 1.35 1.38 1.39 1.41 1.42 1.40 1.40 1.40 1.47 1.51 1.49 1.40 1.42 1.41 1.40 1.33 1.36 1.38 1.38 1.42 1.41 1.42 1.41 1.38 1.34 1.32 1.21 1.10 1.10 1.16 1.19 1.15 1.16 1.15 1.19 1.08 1.08 1.15 1.25 1.26 1.31 1.30 1.28 1.32 1.34
2.12 2.07 2.09 2.12 2.01 1.81 1.63 1.55 1.48 1.41 1.27 1.16 1.13 1.16 1.18 1.19 1.18 1.20 1.21 1.17 1.20 1.22 1.27 1.34 1.34 1.32 1.30 1.28 1.29 1.30 1.28 1.27 1.27 1.28 1.29 1.33 1.33 1.34 1.31 1.29 1.31 1.34 1.39 1.41 1.40 1.39 1.35 1.37 1.40 1.44 1.45 1.42 1.42 1.45 1.46 1.40 1.37 1.34 1.32 1.34 1.38 1.39 1.36 1.35 1.35 1.31 1.26 1.19 1.14 1.09 1.17 1.13 1.15 1.12 1.11 1.19 1.19 1.14 1.16 1.25 1.30 1.31 1.30 1.28 1.33
2.01 2.02 2.07 2.08 2.01 1.89 1.78 1.77 1.76 1.66 1.54 1.38 1.27 1.25 1.25 1.19 1.19 1.20 1.19 1.17 1.14 1.14 1.17 1.19 1.27 1.28 1.31 1.31 1.28 1.27 1.25 1.23 1.21 1.21 1.22 1.25 1.28 1.28 1.28 1.28 1.28 1.32 1.37 1.39 1.39 1.37 1.34 1.34 1.37 1.41 1.41 1.44 1.45 1.43 1.43 1.41 1.39 1.35 1.33 1.31 1.34 1.34 1.31 1.29 1.28 1.25 1.21 1.17 1.17 1.18 1.15 1.21 1.18 1.02 1.13 1.27 1.28 1.25 1.13 1.10 1.10 1.22 1.26 1.25 1.20
2.01 1.93 1.95 2.01 2.10 2.01 1.95 1.94 1.91 1.88 1.81 1.72 1.60 1.38 1.24 1.30 1.30 1.30 1.25 1.21 1.14 1.15 1.15 1.18 1.22 1.24 1.25 1.26 1.29 1.29 1.26 1.21 1.18 1.17 1.16 1.16 1.17 1.19 1.20 1.20 1.21 1.24 1.27 1.31 1.33 1.33 1.32 1.30 1.30 1.34 1.37 1.41 1.43 1.45 1.45 1.39 1.40 1.34 1.36 1.33 1.30 1.26 1.23 1.24 1.24 1.21 1.18 1.18 1.17 1.14 1.16 1.10 1.11 1.16 1.21 1.24 1.16 1.13 1.17 1.10 0.97 1.00 1.09 1.23 1.27
2.13 2.07 2.00 2.00 2.07 2.08 2.01 1.95 1.93 1.96 1.94 1.85 1.73 1.62 1.50 1.39 1.32 1.40 1.40 1.30 1.25 1.19 1.19 1.20 1.21 1.27 1.26 1.23 1.23 1.26 1.26 1.22 1.19 1.14 1.10 1.10 1.12 1.12 1.11 1.11 1.13 1.16 1.18 1.19 1.20 1.19 1.20 1.21 1.22 1.23 1.25 1.27 1.30 1.31 1.32 1.32 1.29 1.25 1.29 1.31 1.27 1.23 1.21 1.21 1.18 1.15 1.12 1.10 1.08 1.14 1.11 1.07 1.07 1.06 1.04 1.02 0.97 0.91 1.04 1.16 1.12 1.17 1.22 1.20 1.24
2.17 2.13 2.13 2.11 2.10 2.13 2.10 1.99 1.99 2.02 2.00 1.95 1.87 1.78 1.70 1.58 1.52 1.47 1.49 1.52 1.42 1.30 1.24 1.21 1.22 1.22 1.24 1.26 1.26 1.26 1.23 1.24 1.21 1.17 1.14 1.08 1.07 1.09 1.09 1.07 1.06 1.06 1.07 1.09 1.10 1.11 1.10 1.10 1.14 1.19 1.21 1.22 1.24 1.27 1.28 1.29 1.31 1.28 1.24 1.23 1.20 1.19 1.19 1.17 1.15 1.13 1.11 1.06 1.05 1.05 1.02 1.00 1.02 1.04 1.01 1.02 1.08 1.12 1.10 1.13 1.07 1.10 1.14 1.11 1.14
2.14 2.16 2.12 2.14 2.16 2.18 2.11 2.06 2.03 1.98 2.00 2.02 2.04 1.94 1.82 1.81 1.72 1.66 1.65 1.53 1.56 1.48 1.35 1.24 1.23 1.23 1.23 1.24 1.26 1.27 1.27 1.27 1.24 1.21 1.15 1.13 1.10 1.06 1.03 1.03 1.03 1.01 1.00 0.98 0.97 0.99 1.02 1.04 1.04 1.05 1.12 1.21 1.25 1.24 1.25 1.27 1.27 1.26 1.26 1.25 1.23 1.18 1.12 1.10 1.09 1.09 1.05 1.02 1.03 1.03 1.00 0.96 0.98 1.02 1.01 1.02 1.03 1.00 0.99 1.02 1.02 1.04 1.01 0.95 0.86
2.07 2.09 2.09 2.08 2.06 2.05 2.05 2.05 2.05 2.05 2.04 2.01 2.04 2.04 1.96 1.87 1.83 1.71 1.56 1.53 1.45 1.37 1.40 1.33 1.24 1.23 1.22 1.23 1.24 1.25 1.27 1.29 1.30 1.28 1.24 1.19 1.15 1.11 1.07 1.03 1.03 1.00 0.97 0.95 0.94 0.94 0.94 0.95 0.97 0.98 0.98 0.98 1.05 1.16 1.20 1.20 1.20 1.19 1.18 1.17 1.16 1.18 1.18 1.11 1.05 1.04 1.04 0.98 0.96 0.97 0.97 0.94 0.93 0.98 0.98 0.98 0.94 0.96 1.02 1.07 1.09 1.08 1.04 0.99 0.96
2.02 2.00 2.02 2.04 2.04 2.04 2.02 2.01 2.04 2.09 2.09 2.06 2.04 2.04 2.05 1.97 1.82 1.72 1.64 1.54 1.50 1.44 1.30 1.30 1.27 1.22 1.19 1.18 1.19 1.23 1.24 1.28 1.30 1.27 1.24 1.22 1.20 1.17 1.12 1.08 1.03 1.01 0.99 0.96 0.93 0.92 0.92 0.93 0.93 0.96 0.96 0.99 0.99 1.00 1.02 1.03 1.06 1.09 1.11 1.12 1.12 1.13 1.13 1.16 1.17 1.11 1.08 1.02 0.96 0.93 0.93 0.92 0.89 0.90 0.94 0.92 0.98 0.94 0.96 0.96 0.97 0.95 0.94 0.89 0.87
1.89 1.91 1.94 1.97 2.00 2.04 2.03 2.03 2.04 2.09 2.15 2.14 2.07 2.02 1.98 1.96 1.94 1.87 1.78 1.67 1.64 1.67 1.58 1.42 1.36 1.37 1.30 1.22 1.19 1.21 1.22 1.25 1.25 1.24 1.22 1.19 1.18 1.18 1.15 1.10 1.06 1.01 0.99 0.99 0.97 0.94 0.92 0.90 0.88 0.87 0.89 0.90 0.93 0.94 0.96 1.00 1.03 1.06 1.08 1.08 1.08 1.09 1.11 1.11 1.09 1.10 1.11 1.04 0.98 0.90 0.95 1.01 0.89 0.87 0.91 0.97 0.93 0.87 0.88 0.88 0.95 0.95 0.96 0.95 1.01
1.76 1.78 1.81 1.86 1.91 1.96 2.00 2.02 2.05 2.11 2.14 2.15 2.11 2.05 2.00 2.00 2.01 1.99 1.93 1.89 1.85 1.77 1.72 1.64 1.59 1.52 1.46 1.42 1.27 1.23 1.25 1.30 1.30 1.29 1.28 1.24 1.19 1.17 1.16 1.15 1.11 1.04 0.99 0.96 0.95 0.95 0.94 0.93 0.89 0.85 0.84 0.83 0.83 0.82 0.81 0.85 0.91 0.95 0.97 0.99 1.02 1.04 1.05 1.06 1.06 1.04 1.03 1.03 0.99 0.94 0.92 0.94 0.93 0.91 0.91 0.97 0.98 0.97 1.00 1.00 1.04 1.07 1.09 1.11 1.06
1.59 1.66 1.67 1.72 1.78 1.85 1.89 1.92 1.99 2.06 2.11 2.13 2.10 2.06 2.03 2.01 2.02 2.05 2.01 1.96 1.91 1.85 1.80 1.80 1.73 1.67 1.61 1.52 1.47 1.34 1.26 1.26 1.30 1.34 1.35 1.33 1.31 1.28 1.22 1.17 1.13 1.09 1.05 1.01 0.95 0.92 0.91 0.90 0.88 0.86 0.84 0.82 0.83 0.85 0.87 0.88 0.88 0.87 0.85 0.85 0.88 0.91 0.94 0.99 1.03 1.05 1.05 1.02 0.99 0.96 0.93 0.93 0.91 0.88 0.87 0.87 0.90 0.96 1.04 1.13 1.17 1.10 0.99 0.91 0.83
1.34 1.45 1.55 1.63 1.69 1.77 1.83 1.85 1.90 1.96 2.04 2.07 2.05 2.05 2.04 2.06 2.07 2.11 2.06 2.04 1.99 1.92 1.87 1.84 1.85 1.82 1.74 1.70 1.61 1.55 1.49 1.41 1.34 1.27 1.29 1.33 1.33 1.29 1.26 1.22 1.18 1.14 1.11 1.08 1.05 1.02 0.99 0.95 0.92 0.89 0.88 0.87 0.88 0.91 0.94 0.98 0.96 0.94 0.93 0.91 0.91 0.90 0.88 0.95 0.99 1.00 1.00 1.00 0.99 0.99 0.98 0.96 0.95 0.94 0.95 0.96 0.98 1.02 1.04 0.99 0.94 0.97 0.91 0.85 0.85
1.22 1.27 1.32 1.47 1.57 1.66 1.75 1.81 1.87 1.94 1.99 1.99 2.01 2.03 2.08 2.12 2.12 2.17 2.09 2.04 2.00 1.98 1.94 1.88 1.89 1.91 1.89 1.84 1.85 1.84 1.87 1.85 1.68 1.52 1.37 1.31 1.27 1.23 1.22 1.19 1.15 1.13 1.13 1.15 1.15 1.12 1.09 1.06 1.03 0.97 0.93 0.93 0.96 0.98 1.00 1.03 0.99 0.96 0.94 0.90 0.88 0.87 0.87 0.95 1.00 1.01 1.01 1.02 1.02 1.03 1.04 1.03 1.02 1.03 1.04 1.03 1.02 1.05 1.03 0.91 0.96 1.01 0.92 0.90 0.82
1.11 1.18 1.23 1.31 1.42 1.52 1.57 1.62 1.70 1.80 1.86 1.93 2.00 2.02 2.05 2.07 2.12 2.14 2.11 2.10 2.07 2.08 2.05 1.98 1.94 1.94 1.94 1.95 1.98 2.03 2.01 1.94 1.80 1.64 1.53 1.50 1.43 1.37 1.32 1.26 1.19 1.17 1.17 1.17 1.22 1.22 1.20 1.18 1.15 1.11 1.05 1.01 0.99 0.97 0.97 0.98 0.95 0.93 0.91 0.89 0.83 0.79 0.80 0.88 0.89 0.87 0.90 0.94 0.96 0.99 0.98 0.98 1.00 1.01 1.01 1.02 1.05 1.10 1.12 1.09 1.11 1.04 0.91 0.87 0.86
1.07 1.13 1.17 1.18 1.26 1.33 1.42 1.46 1.52 1.59 1.71 1.83 1.93 2.01 2.09 2.10 2.09 2.08 2.10 2.10 2.07 2.06 2.07 2.06 1.99 1.97 1.99 1.98 1.98 1.93 1.88 1.86 1.83 1.83 1.87 1.90 1.87 1.77 1.65 1.49 1.35 1.29 1.28 1.24 1.20 1.23 1.25 1.24 1.25 1.23 1.20 1.17 1.14 1.12 1.10 1.11 1.08 1.07 1.08 1.02 0.94 0.87 0.93 0.99 1.01 1.01 0.99 0.98 0.96 0.98 0.97 1.00 1.02 1.04 1.05 1.06 1.07 1.10 1.13 1.17 1.17 1.11 1.00 0.91 0.90
1.03 1.08 1.11 1.16 1.12 1.15 1.24 1.32 1.38 1.44 1.51 1.61 1.77 1.86 1.95 2.02 2.08 2.09 2.08 2.10 2.10 2.06 2.05 2.03 2.02 2.04 2.09 2.09 2.06 1.99 1.94 1.88 1.97 2.10 2.12 2.08 2.02 1.92 1.84 1.73 1.63 1.55 1.49 1.44 1.35 1.27 1.24 1.25 1.27 1.29 1.29 1.29 1.27 1.26 1.25 1.26 1.26 1.24 1.21 1.13 1.09 1.11 1.19 1.17 1.15 1.19 1.16 1.13 1.11 1.09 1.08 1.09 1.09 1.09 1.09 1.09 1.07 1.08 1.11 1.13 1.16 1.15 1.09 1.00 0.94
0.97 0.93 1.04 1.10 1.11 1.07 1.10 1.14 1.22 1.32 1.42 1.50 1.51 1.48 1.62 1.84 1.96 2.03 2.09 2.10 2.08 2.07 2.08 2.08 2.05 2.05 2.11 2.15 2.13 2.09 2.12 2.11 2.05 2.02 2.01 2.00 2.03 2.04 1.97 1.92 1.90 1.79 1.66 1.58 1.53 1.48 1.43 1.37 1.33 1.34 1.36 1.35 1.35 1.33 1.32 1.32 1.33 1.33 1.27 1.26 1.25 1.24 1.24 1.28 1.30 1.29 1.28 1.27 1.24 1.21 1.19 1.16 1.15 1.16 1.18 1.18 1.17 1.17 1.16 1.14 1.12 1.12 1.16 1.15 1.08
0.79 0.82 0.93 1.00 1.03 1.04 1.06 1.00 1.05 1.16 1.25 1.42 1.42 1.34 1.41 1.58 1.76 1.88 1.97 2.02 2.03 2.00 2.01 2.05 2.06 2.06 2.06 2.05 2.09 2.13 2.16 2.16 2.15 2.13 2.11 2.08 2.06 2.02 1.99 1.97 1.99 1.96 1.84 1.74 1.70 1.66 1.64 1.60 1.55 1.52 1.48 1.46 1.43 1.40 1.38 1.35 1.35 1.33 1.33 1.35 1.35 1.33 1.35 1.35 1.36 1.36 1.34 1.33 1.32 1.28 1.26 1.25 1.22 1.21 1.23 1.24 1.27 1.30 1.28 1.25 1.22 1.20 1.18 1.18 1.20
0.67 0.71 0.81 0.93 0.93 0.96 0.97 0.93 0.95 1.06 1.16 1.22 1.20 1.27 1.33 1.42 1.53 1.70 1.83 1.91 1.93 1.92 1.97 2.01 2.02 2.03 2.03 2.06 2.14 2.22 2.24 2.19 2.19 2.19 2.17 2.16 2.13 2.08 2.03 1.99 1.96 1.91 1.90 1.84 1.84 1.84 1.82 1.77 1.70 1.64 1.61 1.57 1.53 1.52 1.51 1.49 1.45 1.41 1.40 1.40 1.41 1.43 1.44 1.43 1.42 1.40 1.39 1.37 1.33 1.29 1.27 1.30 1.30 1.27 1.28 1.36 1.39 1.42 1.44 1.46 1.43 1.38 1.31 1.26 1.24
0.65 0.64 0.68 0.77 0.82 0.84 0.83 0.86 0.86 0.96 1.05 1.05 1.09 1.15 1.20 1.31 1.37 1.50 1.62 1.70 1.76 1.79 1.84 1.90 1.91 1.94 1.99 2.03 2.05 2.11 2.20 2.21 2.20 2.19 2.17 2.16 2.15 2.15 2.11 2.07 2.04 2.00 1.90 1.88 1.85 1.81 1.83 1.87 1.84 1.80 1.76 1.68 1.60 1.56 1.53 1.52 1.54 1.55 1.54 1.52 1.50 1.46 1.43 1.42 1.41 1.41 1.36 1.32 1.32 1.34 1.36 1.38 1.42 1.43 1.46 1.46 1.46 1.45 1.40 1.41 1.46 1.47 1.46 1.42 1.36
0.55 0.54 0.57 0.62 0.68 0.75 0.75 0.77 0.80 0.83 0.90 1.04 1.09 1.12 1.11 1.15 1.27 1.35 1.39 1.42 1.48 1.57 1.67 1.76 1.82 1.83 1.86 1.93 1.98 2.04 2.14 2.15 2.19 2.22 2.19 2.17 2.15 2.15 2.14 2.13 2.09 2.07 2.03 1.98 1.96 1.90 1.83 1.78 1.80 1.80 1.79 1.75 1.70 1.65 1.61 1.60 1.61 1.62 1.60 1.59 1.57 1.53 1.48 1.45 1.45 1.43 1.37 1.39 1.39 1.36 1.39 1.47 1.51 1.56 1.58 1.54 1.42 1.32 1.31 1.28 1.27 1.27 1.36 1.37 1.33
0.56 0.56 0.54 0.54 0.59 0.66 0.69 0.70 0.72 0.75 0.89 0.99 1.03 1.04 1.05 1.09 1.10 1.13 1.19 1.20 1.23 1.27 1.34 1.47 1.61 1.72 1.78 1.83 1.88 1.94 1.98 2.07 2.11 2.13 2.16 2.15 2.14 2.14 2.13 2.12 2.12 2.08 2.03 2.04 2.03 2.00 1.96 1.92 1.87 1.85 1.86 1.85 1.81 1.77 1.73 1.72 1.67 1.67 1.71 1.72 1.68 1.61 1.61 1.59 1.55 1.52 1.49 1.46 1.43 1.44 1.49 1.56 1.63 1.61 1.56 1.54 1.46 1.42 1.43 1.37 1.31 1.23 1.23 1.23 1.24
0.54 0.54 0.54 0.52 0.56 0.62 0.66 0.68 0.64 0.71 0.82 0.83 0.83 0.88 0.98 1.04 1.01 0.98 0.99 1.06 1.12 1.17 1.23 1.29 1.38 1.47 1.55 1.66 1.74 1.78 1.78 1.87 2.00 2.06 2.08 2.09 2.09 2.13 2.16 2.13 2.11 2.09 2.06 2.07 2.07 2.05 2.01 2.01 2.00 1.97 1.91 1.85 1.83 1.82 1.77 1.75 1.72 1.67 1.67 1.76 1.80 1.76 1.73 1.70 1.65 1.59 1.56 1.57 1.55 1.55 1.55 1.57 1.54 1.54 1.58 1.57 1.53 1.52 1.54 1.48 1.38 1.31 1.31 1.29 1.19
0.53 0.54 0.55 0.55 0.54 0.62 0.66 0.64 0.68 0.70 0.70 0.73 0.76 0.76 0.76 0.82 0.91 0.96 1.03 1.06 1.07 1.09 1.16 1.24 1.32 1.35 1.39 1.45 1.51 1.55 1.66 1.74 1.85 2.02 2.06 2.06 2.01 1.99 2.01 2.03 2.05 2.07 2.11 2.11 2.07 2.03 1.97 1.93 1.91 1.91 1.88 1.82 1.80 1.79 1.77 1.73 1.70 1.72 1.72 1.78 1.84 1.85 1.83 1.77 1.64 1.57 1.57 1.55 1.47 1.45 1.44 1.46 1.47 1.53 1.54 1.52 1.50 1.50 1.55 1.47 1.40 1.33 1.31 1.34 1.22
0.48 0.50 0.53 0.55 0.58 0.63 0.69 0.70 0.68 0.67 0.65 0.62 0.62 0.66 0.75 0.81 0.87 0.89 0.92 1.00 1.02 1.06 1.11 1.15 1.23 1.28 1.29 1.34 1.42 1.42 1.49 1.65 1.79 1.82 1.88 1.96 2.02 2.02 2.01 2.02 2.03 2.05 2.08 2.10 2.06 1.93 1.86 1.81 1.81 1.82 1.84 1.84 1.77 1.74 1.72 1.71 1.69 1.70 1.76 1.81 1.85 1.84 1.80 1.76 1.68 1.59 1.56 1.49 1.42 1.38 1.35 1.36 1.35 1.40 1.44 1.39 1.36 1.42 1.48 1.47 1.39 1.41 1.31 1.23 1.19
0.48 0.48 0.51 0.53 0.55 0.58 0.62 0.64 0.67 0.65 0.62 0.61 0.65 0.62 0.60 0.65 0.72 0.80 0.87 0.91 0.97 0.99 1.01 1.07 1.13 1.19 1.23 1.23 1.32 1.39 1.44 1.51 1.58 1.65 1.72 1.78 1.85 1.90 1.94 1.98 2.01 2.02 2.04 2.01 1.95 1.88 1.81 1.77 1.77 1.80 1.81 1.83 1.79 1.77 1.80 1.81 1.79 1.76 1.79 1.87 1.93 1.91 1.89 1.83 1.72 1.66 1.57 1.50 1.48 1.46 1.44 1.39 1.30 1.30 1.33 1.35 1.35 1.39 1.45 1.46 1.41 1.39 1.33 1.26 1.20
0.50 0.50 0.50 0.55 0.58 0.59 0.63 0.66 0.68 0.66 0.66 0.68 0.64 0.59 0.54 0.52 0.59 0.70 0.77 0.81 0.86 0.90 0.94 0.97 1.01 1.05 1.12 1.17 1.21 1.26 1.33 1.36 1.38 1.42 1.51 1.59 1.65 1.69 1.73 1.77 1.83 1.89 1.94 1.94 1.84 1.82 1.85 1.82 1.80 1.79 1.81 1.78 1.79 1.84 1.87 1.86 1.87 1.88 1.89 1.88 1.90 1.96 1.93 1.84 1.83 1.76 1.65 1.58 1.57 1.59 1.61 1.61 1.57 1.55 1.57 1.57 1.59 1.56 1.53 1.51 1.44 1.34 1.27 1.26 1.22
0.55 0.54 0.53 0.52 0.53 0.56 0.61 0.64 0.70 0.72 0.69 0.65 0.62 0.60 0.56 0.53 0.53 0.56 0.65 0.74 0.78 0.81 0.85 0.89 0.92 0.96 1.03 1.10 1.18 1.21 1.22 1.25 1.27 1.30 1.34 1.43 1.51 1.55 1.57 1.62 1.68 1.74 1.77 1.75 1.72 1.72 1.79 1.82 1.82 1.84 1.85 1.81 1.84 1.87 1.88 1.88 1.87 1.88 1.93 1.94 1.92 1.94 1.95 1.95 1.95 1.82 1.69 1.63 1.61 1.59 1.62 1.64 1.65 1.64 1.62 1.60 1.59 1.52 1.54 1.54 1.53 1.55 1.54 1.52 1.51
0.59 0.58 0.57 0.55 0.54 0.55 0.58 0.62 0.68 0.72 0.73 0.71 0.68 0.66 0.66 0.68 0.67 0.63 0.57 0.56 0.60 0.64 0.71 0.75 0.83 0.92 0.99 1.06 1.07 1.10 1.14 1.17 1.19 1.20 1.22 1.24 1.31 1.35 1.36 1.38 1.46 1.57 1.64 1.64 1.67 1.65 1.71 1.74 1.79 1.84 1.89 1.93 1.94 1.93 1.89 1.88 1.91 1.91 1.94 1.97 1.97 1.99 1.99 2.01 1.91 1.79 1.69 1.63 1.64 1.67 1.67 1.67 1.70 1.67 1.62 1.63 1.66 1.68 1.66 1.63 1.64 1.60 1.54 1.51 1.48
0.62 0.62 0.61 0.61 0.61 0.62 0.65 0.70 0.74 0.76 0.77 0.77 0.75 0.72 0.71 0.70 0.69 0.64 0.59 0.55 0.51 0.49 0.53 0.64 0.80 0.91 0.93 0.95 0.96 1.00 1.03 1.07 1.11 1.14 1.15 1.16 1.16 1.17 1.20 1.21 1.25 1.37 1.46 1.53 1.58 1.63 1.66 1.70 1.71 1.73 1.78 1.82 1.88 1.93 1.91 1.88 1.85 1.85 1.85 1.88 1.92 1.95 1.94 1.92 1.89 1.84 1.72 1.66 1.71 1.78 1.80 1.76 1.74 1.75 1.70 1.63 1.63 1.64 1.66 1.70 1.74 1.74 1.65 1.58 1.56
0.63 0.63 0.66 0.67 0.67 0.69 0.70 0.72 0.74 0.75 0.76 0.76 0.76 0.74 0.73 0.71 0.69 0.67 0.64 0.60 0.55 0.53 0.58 0.68 0.76 0.87 0.90 0.90 0.95 0.99 1.00 1.02 1.05 1.08 1.10 1.11 1.10 1.09 1.01 1.03 1.11 1.21 1.31 1.41 1.47 1.53 1.60 1.65 1.69 1.71 1.75 1.79 1.84 1.88 1.91 1.92 1.90 1.90 1.92 1.92 1.92 1.98 1.99 1.98 1.97 1.94 1.87 1.80 1.79 1.82 1.84 1.85 1.84 1.81 1.77 1.71 1.66 1.65 1.67 1.71 1.76 1.76 1.75 1.71 1.69
0.65 0.66 0.68 0.70 0.71 0.69 0.68 0.71 0.73 0.76 0.77 0.76 0.75 0.74 0.74 0.74 0.73 0.72 0.69 0.64 0.61 0.61 0.62 0.67 0.73 0.78 0.86 0.93 0.95 0.97 0.99 0.98 0.99 1.00 1.02 1.03 1.03 1.04 1.03 1.04 1.04 1.09 1.16 1.28 1.37 1.39 1.41 1.48 1.59 1.64 1.69 1.72 1.77 1.82 1.86 1.90 1.96 1.96 1.98 2.02 2.03 2.00 1.98 2.01 2.04 2.02 1.95 1.88 1.88 1.89 1.88 1.87 1.89 1.89 1.82 1.70 1.68 1.72 1.76 1.77 1.72 1.66 1.67 1.71 1.74
0.69 0.70 0.71 0.73 0.74 0.74 0.72 0.71 0.71 0.73 0.75 0.76 0.76 0.75 0.74 0.73 0.72 0.71 0.69 0.67 0.68 0.66 0.64 0.67 0.72 0.74 0.75 0.84 0.92 0.89 0.89 0.91 0.92 0.92 0.94 0.95 0.95 0.96 0.99 1.00 1.02 1.02 1.03 1.09 1.18 1.28 1.35 1.42 1.48 1.50 1.54 1.60 1.65 1.71 1.75 1.82 1.90 1.95 1.96 1.97 1.97 1.96 1.99 2.04 2.06 2.04 1.99 1.95 1.93 1.92 1.92 1.92 1.93 1.90 1.86 1.77 1.70 1.73 1.78 1.79 1.74 1.69 1.68 1.69 1.69
0.67 0.69 0.73 0.76 0.77 0.78 0.78 0.77 0.77 0.76 0.76 0.76 0.76 0.74 0.72 0.71 0.71 0.70 0.70 0.71 0.72 0.73 0.73 0.72 0.71 0.71 0.75 0.79 0.80 0.82 0.80 0.76 0.76 0.77 0.81 0.85 0.88 0.93 0.94 0.94 0.95 0.95 0.98 1.01 1.05 1.08 1.14 1.25 1.37 1.46 1.50 1.53 1.56 1.60 1.64 1.69 1.79 1.88 1.94 1.96 1.97 1.97 1.96 1.96 1.96 1.96 1.95 1.93 1.92 1.93 1.97 1.97 1.94 1.91 1.88 1.84 1.78 1.76 1.81 1.82 1.80 1.77 1.70 1.68 1.71
0.63 0.66 0.69 0.72 0.75 0.76 0.78 0.79 0.80 0.79 0.79 0.77 0.76 0.76 0.75 0.74 0.73 0.73 0.73 0.72 0.70 0.72 0.74 0.73 0.72 0.73 0.76 0.77 0.76 0.76 0.72 0.70 0.71 0.73 0.76 0.79 0.82 0.86 0.88 0.88 0.89 0.89 0.89 0.90 0.93 0.98 1.03 1.09 1.19 1.29 1.38 1.44 1.49 1.53 1.56 1.59 1.63 1.72 1.81 1.86 1.87 1.86 1.87 1.88 1.87 1.88 1.87 1.89 1.91 1.97 1.99 1.96 1.94 1.94 1.92 1.90 1.85 1.83 1.83 1.80 1.79 1.80 1.78 1.75 1.77
0.58 0.62 0.65 0.68 0.71 0.74 0.76 0.77 0.78 0.79 0.79 0.78 0.78 0.77 0.76 0.77 0.77 0.77 0.76 0.75 0.73 0.71 0.70 0.71 0.72 0.75 0.78 0.77 0.77 0.76 0.71 0.68 0.69 0.71 0.74 0.75 0.77 0.80 0.82 0.85 0.86 0.86 0.87 0.87 0.89 0.92 0.95 0.99 1.06 1.15 1.24 1.33 1.40 1.46 1.50 1.53 1.54 1.57 1.62 1.72 1.79 1.81 1.80 1.80 1.81 1.83 1.89 1.92 1.93 1.94 1.98 2.00 1.99 1.97 1.91 1.91 1.93 1.91 1.89 1.87 1.83 1.81 1.81 1.80 1.79
0.54 0.56 0.59 0.63 0.66 0.67 0.69 0.72 0.76 0.78 0.79 0.79 0.78 0.77 0.77 0.78 0.79 0.79 0.79 0.77 0.75 0.74 0.72 0.71 0.72 0.75 0.76 0.76 0.74 0.73 0.70 0.70 0.70 0.70 0.71 0.73 0.74 0.75 0.79 0.82 0.85 0.86 0.86 0.87 0.88 0.89 0.90 0.92 0.96 1.03 1.09 1.17 1.25 1.34 1.41 1.46 1.49 1.50 1.52 1.58 1.65 1.71 1.71 1.72 1.75 1.79 1.83 1.87 1.92 1.96 1.99 1.99 1.98 1.97 1.95 1.93 1.92 1.91 1.89 1.88 1.86 1.83 1.82 1.82 1.83
0.52 0.53 0.54 0.57 0.60 0.64 0.67 0.70 0.73 0.74 0.75 0.76 0.77 0.79 0.80 0.79 0.78 0.79 0.78 0.77 0.76 0.74 0.71 0.70 0.71 0.75 0.75 0.75 0.73 0.71 0.70 0.70 0.69 0.69 0.69 0.70 0.72 0.74 0.75 0.77 0.80 0.83 0.86 0.88 0.90 0.90 0.90 0.91 0.92 0.96 1.00 1.05 1.11 1.18 1.25 1.33 1.41 1.44 1.46 1.48 1.51 1.56 1.58 1.60 1.62 1.63 1.66 1.70 1.77 1.84 1.89 1.93 1.94 1.95 1.95 1.94 1.91 1.87 1.82 1.81 1.82 1.81 1.82 1.83 1.84
0.50 0.51 0.52 0.53 0.55 0.58 0.62 0.66 0.69 0.72 0.74 0.77 0.79 0.79 0.79 0.80 0.80 0.80 0.80 0.79 0.78 0.76 0.75 0.74 0.73 0.72 0.73 0.75 0.74 0.72 0.70 0.69 0.68 0.67 0.67 0.69 0.70 0.71 0.73 0.76 0.78 0.80 0.82 0.86 0.89 0.91 0.91 0.91 0.92 0.95 0.98 1.01 1.06 1.10 1.14 1.18 1.23 1.27 1.33 1.36 1.40 1.45 1.49 1.51 1.52 1.52 1.53 1.53 1.58 1.63 1.69 1.76 1.80 1.82 1.82 1.84 1.85 1.80 1.75 1.74 1.75 1.76 1.78 1.79 1.82
0.48 0.49 0.50 0.51 0.52 0.54 0.57 0.63 0.67 0.70 0.73 0.75 0.76 0.78 0.80 0.79 0.78 0.79 0.80 0.80 0.80 0.78 0.76 0.75 0.75 0.75 0.74 0.74 0.72 0.70 0.68 0.67 0.67 0.67 0.68 0.69 0.69 0.71 0.73 0.75 0.77 0.78 0.80 0.82 0.85 0.88 0.90 0.91 0.91 0.92 0.94 0.97 1.02 1.05 1.07 1.10 1.12 1.14 1.19 1.24 1.28 1.33 1.38 1.43 1.46 1.48 1.47 1.45 1.46 1.48 1.53 1.58 1.62 1.64 1.63 1.63 1.63 1.62 1.59 1.61 1.65 1.69 1.71 1.72 1.73
0.47 0.48 0.49 0.50 0.52 0.55 0.58 0.62 0.67 0.70 0.71 0.72 0.74 0.75 0.78 0.79 0.80 0.80 0.80 0.80 0.81 0.79 0.77 0.75 0.74 0.74 0.74 0.72 0.71 0.69 0.68 0.68 0.67 0.67 0.68 0.70 0.71 0.72 0.74 0.75 0.76 0.77 0.78 0.80 0.81 0.84 0.87 0.91 0.92 0.92 0.93 0.95 0.98 1.00 1.03 1.04 1.06 1.08 1.11 1.16 1.20 1.25 1.31 1.36 1.42 1.45 1.44 1.43 1.41 1.42 1.42 1.43 1.46 1.50 1.52 1.53 1.55 1.57 1.56 1.55 1.54 1.53 1.53 1.54 1.58
0.44 0.47 0.50 0.52 0.54 0.56 0.59 0.61 0.64 0.67 0.70 0.72 0.74 0.75 0.76 0.78 0.78 0.79 0.80 0.80 0.81 0.81 0.78 0.76 0.74 0.71 0.71 0.71 0.70 0.70 0.70 0.69 0.68 0.68 0.69 0.70 0.72 0.73 0.73 0.74 0.74 0.75 0.77 0.79 0.80 0.81 0.83 0.87 0.91 0.93 0.93 0.94 0.95 0.97 1.00 1.02 1.03 1.05 1.08 1.10 1.12 1.15 1.20 1.26 1.31 1.37 1.42 1.45 1.44 1.41 1.40 1.39 1.37 1.38 1.43 1.48 1.51 1.54 1.56 1.56 1.55 1.52 1.52 1.52 1.52
0.45 0.48 0.50 0.53 0.55 0.56 0.58 0.61 0.63 0.66 0.70 0.72 0.75 0.77 0.78 0.79 0.78 0.78 0.79 0.80 0.79 0.79 0.77 0.75 0.72 0.71 0.70 0.71 0.72 0.72 0.72 0.72 0.72 0.71 0.71 0.71 0.72 0.73 0.73 0.73 0.73 0.75 0.76 0.77 0.79 0.79 0.80 0.82 0.87 0.91 0.92 0.92 0.93 0.95 0.97 1.00 1.02 1.03 1.05 1.07 1.09 1.10 1.13 1.18 1.23 1.30 1.36 1.42 1.46 1.48 1.46 1.43 1.41 1.39 1.38 1.38 1.41 1.45 1.45 1.45 1.46 1.46 1.46 1.46 1.47
0.48 0.49 0.50 0.52 0.55 0.57 0.59 0.61 0.64 0.66 0.68 0.72 0.75 0.77 0.78 0.78 0.78 0.78 0.79 0.79 0.78 0.77 0.76 0.73 0.71 0.70 0.70 0.71 0.72 0.73 0.73 0.73 0.72 0.72 0.72 0.72 0.73 0.73 0.74 0.75 0.75 0.76 0.76 0.76 0.76 0.77 0.79 0.81 0.83 0.87 0.88 0.90 0.93 0.94 0.96 0.97 0.98 0.99 1.01 1.04 1.06 1.06 1.09 1.13 1.17 1.23 1.29 1.34 1.41 1.47 1.50 1.51 1.49 1.46 1.43 1.39 1.38 1.38 1.37 1.37 1.37 1.36 1.38 1.39 1.39
0.49 0.50 0.51 0.52 0.55 0.57 0.61 0.64 0.66 0.68 0.71 0.74 0.75 0.75 0.76 0.76 0.76 0.76 0.77 0.77 0.76 0.75 0.74 0.73 0.72 0.71 0.71 0.71 0.72 0.72 0.73 0.72 0.72 0.71 0.71 0.72 0.74 0.75 0.75 0.75 0.75 0.75 0.75 0.75 0.76 0.77 0.78 0.79 0.81 0.85 0.88 0.89 0.91 0.93 0.94 0.94 0.95 0.98 1.00 1.02 1.05 1.06 1.09 1.12 1.15 1.18 1.21 1.26 1.33 1.40 1.46 1.49 1.51 1.49 1.47 1.44 1.42 1.41 1.39 1.37 1.35 1.34 1.35 1.34 1.34
0.49 0.50 0.51 0.53 0.55 0.58 0.62 0.64 0.67 0.70 0.72 0.74 0.75 0.75 0.75 0.75 0.74 0.74 0.76 0.76 0.76 0.76 0.75 0.73 0.72 0.72 0.71 0.71 0.72 0.72 0.72 0.73 0.73 0.73 0.72 0.73 0.74 0.75 0.75 0.75 0.74 0.74 0.75 0.76 0.76 0.76 0.78 0.79 0.81 0.83 0.84 0.86 0.88 0.90 0.91 0.93 0.95 0.97 0.98 1.00 1.03 1.06 1.09 1.12 1.15 1.18 1.22 1.26 1.31 1.35 1.38 1.42 1.45 1.44 1.44 1.44 1.43 1.41 1.40 1.39 1.36 1.32 1.29 1.28 1.27
Wind_Speed
17 18 18 18 18 18 18 17 16 15 15 15 16 15 14 14 13 12 12 11 11 10 10 10 9 9 8 8 8 7 7 7 7 6 6 6 6 6 6 6 6 6 6 6 7 7 7 7 7 7 7 7 7 6 6 6 6 6 7 8 8 9 10 10 10 10 10 10 9 9 10 9 9 9 10 10 11 12 12 12 13 14 14 15 15
18 17 18 19 19 19 18 18 17 16 16 16 16 16 16 15 14 13 13 13 12 11 11 11 10 10 9 9 8 8 8 8 7 7 7 7 6 6 6 6 6 6 6 6 7 7 7 7 8 8 8 8 8 8 7 7 6 6 7 8 8 9 10 10 11 11 12 12 11 11 11 11 11 11 11 11 12 12 13 14 14 15 15 16 16
18 18 19 19 19 19 19 19 18 18 17 16 16 17 17 16 15 15 14 14 13 13 12 12 11 10 10 10 9 9 9 9 8 8 8 8 7 7 7 7 6 6 7 7 7 7 7 7 7 8 8 8 9 9 9 8 7 7 7 7 8 8 9 10 11 11 12 12 12 12 12 12 12 12 12 13 13 14 14 15 15 16 16 16 16
18 19 20 19 19 19 19 19 19 19 18 17 17 17 17 17 17 16 15 15 14 14 14 13 12 12 11 11 10 10 10 9 9 9 9 8 8 8 8 7 7 7 7 7 7 7 7 7 7 7 8 8 9 9 9 9 9 8 8 8 8 8 8 9 10 10 11 12 12 12 13 13 13 13 14 14 14 15 15 15 15 15 16 16 16
18 19 20 19 18 18 18 18 18 19 19 19 18 18 18 18 18 17 17 16 16 15 15 15 14 13 13 12 12 11 11 11 10 10 9 9 9 9 9 8 8 8 8 8 7 7 7 8 8 8 8 8 8 9 9 10 10 9 9 9 9 9 9 9 9 10 11 12 12 12 13 13 13 14 14 15 15 15 15 14 15 15 15 16 16
18 18 19 19 18 18 17 17 17 18 18 19 19 18 18 18 18 18 18 18 17 16 16 16 15 15 14 14 13 13 12 12 11 11 10 10 10 9 9 9 9 9 9 8 8 8 8 8 8 8 8 8 8 9 9 10 10 10 10 10 10 10 10 11 11 11 11 12 12 13 13 13 13 14 14 14 14 14 14 15 15 15 15 15 15
17 18 19 19 18 18 18 18 17 17 18 18 18 18 18 18 19 19 19 19 18 18 18 17 17 16 16 15 15 14 14 13 13 12 12 11 11 11 10 10 10 10 10 9 9 9 9 9 9 9 9 9 9 9 10 10 10 10 11 11 11 11 11 11 11 12 12 12 12 13 13 13 13 14 14 13 13 14 14 15 15 15 15 15 14
17 18 18 19 19 18 18 19 18 18 18 18 18 18 18 18 18 19 19 20 19 19 19 19 18 17 17 17 16 16 15 15 14 14 13 12 12 12 12 11 11 11 11 11 10 10 10 10 10 10 10 10 10 10 10 10 10 11 11 11 11 11 12 12 12 12 12 13 13 13 13 13 13 14 14 13 14 14 14 14 14 14 14 14 14
16 17 17 18 19 18 18 19 19 20 20 19 19 19 19 19 19 18 19 20 21 20 19 19 19 19 18 18 18 18 17 17 16 16 15 14 14 13 13 13 12 12 12 12 12 12 12 12 11 11 11 11 11 11 11 11 11 11 11 11 12 12 12 12 13 13 13 13 14 14 14 14 14 14 14 14 14 14 14 14 14 15 15 15 14
14 15 16 16 17 17 17 18 19 20 21 21 21 21 20 21 21 19 18 19 21 22 21 20 20 20 20 19 19 19 19 18 18 18 17 16 16 15 15 14 14 14 13 13 13 13 13 13 13 13 13 13 13 13 13 13 13 12 12 12 13 13 13 13 14 14 14 14 14 14 14 14 14 14 14 15 15 15 15 15 15 16 16 16 15
13 13 14 15 16 16 16 17 18 20 21 22 22 22 22 21 22 22 20 19 19 21 22 21 21 21 21 21 20 20 20 20 19 19 19 18 18 17 16 16 15 15 15 15 14 14 14 14 14 14 14 14 14 15 15 15 15 15 14 14 14 14 14 14 14 15 15 15 15 15 15 15 15 15 16 16 16 16 16 16 16 16 15 15 15
14 13 14 15 16 16 16 16 17 18 19 21 22 22 23 22 22 22 22 20 19 20 21 22 22 21 21 21 22 21 21 21 21 20 20 20 20 19 19 18 17 17 16 16 16 16 15 15 15 14 15 15 15 15 16 16 16 16 16 16 16 16 16 16 16 16 16 16 16 16 16 17 17 17 17 17 17 17 17 17 16 16 16 16 16
14 14 15 15 16 16 16 16 16 16 17 19 21 22 22 22 23 23 22 22 21 20 20 21 21 22 22 22 22 22 22 22 22 22 22 21 21 20 20 20 19 19 18 18 18 18 17 17 16 16 16 16 16 16 16 16 16 17 18 18 18 18 18 18 17 17 17 17 18 18 18 18 18 18 18 18 18 18 18 18 18 18 18 18 18
14 15 15 15 16 17 17 17 17 17 17 18 19 21 21 22 23 23 24 24 23 22 22 22 21 21 22 22 23 23 23 23 23 23 23 23 22 21 21 21 21 21 20 20 20 19 19 19 18 18 18 18 17 17 17 17 17 17 18 18 19 19 19 19 19 19 19 19 19 20 19 20 20 20 20 20 20 20 20 20 20 20 20 20 20
13 13 14 15 15 16 17 18 18 19 19 19 19 20 21 22 22 23 24 24 24 24 25 24 23 22 22 22 23 23 23 23 23 24 24 24 23 23 22 22 22 22 21 21 21 21 21 21 21 20 20 20 19 19 19 19 19 19 19 19 19 19 20 20 20 20 21 21 21 22 22 22 22 22 22 21 21 21 21 21 21 21 22 22 22
12 12 12 13 14 15 16 17 18 19 19 20 20 20 20 21 22 22 23 24 25 25 26 26 26 25 24 23 23 23 24 25 25 25 25 25 25 24 24 24 23 23 23 22 22 22 22 22 22 22 22 22 21 22 21 21 21 21 21 21 21 20 21 21 22 22 23 23 23 24 24 24 24 24 23 23 22 22 22 22 22 22 22 23 22
12 12 13 13 14 14 15 16 17 17 18 19 20 20 21 21 22 22 23 24 25 25 25 26 27 27 27 26 24 24 24 25 26 26 26 26 26 25 25 25 25 25 24 24 23 23 23 23 23 23 23 23 23 23 23 23 22 23 23 23 23 23 23 23 23 24 25 25 26 26 26 26 25 25 24 24 24 23 23 23 23 23 23 23 23
13 14 14 14 14 15 15 16 17 18 18 19 20 20 21 22 22 23 24 25 26 26 26 26 27 28 28 28 28 27 25 25 25 26 26 27 27 26 26 27 26 26 26 26 25 25 25 25 24 24 24 24 24 25 24 24 24 24 25 25 25 25 25 25 25 25 26 26 26 26 26 27 27 26 26 26 26 25 25 25 25 24 24 24 24
15 15 15 16 16 16 16 17 17 18 19 19 20 20 21 21 22 23 23 24 26 27 27 27 27 28 28 29 30 29 27 25 26 27 27 27 27 27 27 28 28 28 28 27 27 27 27 27 27 27 26 26 26 26 26 26 26 26 26 27 27 27 27 27 27 27 27 27 26 26 27 27 27 27 27 27 28 27 27 27 27 26 26 26 26
17 17 17 17 17 17 18 18 18 18 18 19 19 20 20 21 22 22 23 23 25 26 27 28 28 28 29 29 30 30 28 28 29 29 28 28 29 29 29 29 29 29 29 29 29 29 29 29 29 29 29 29 28 28 28 28 28 28 28 28 28 28 28 28 28 28 28 28 28 27 27 27 27 27 27 28 28 28 29 28 28 28 28 27 27
19 19 19 18 18 18 18 18 18 19 19 19 19 20 20 21 21 22 22 23 24 25 26 27 28 28 28 29 29 29 29 29 30 30 29 29 29 30 30 30 30 30 30 30 30 30 30 30 30 30 30 30 30 30 30 30 29 29 29 29 29 29 29 29 29 29 29 29 29 28 28 28 28 28 28 28 28 29 29 29 29 29 29 29 28
22 21 21 21 20 19 19 19 19 19 20 20 20 20 21 21 21 21 21 22 23 24 25 26 27 28 28 28 28 28 29 29 29 29 30 30 30 30 30 30 30 30 31 31 31 31 31 31 30 31 31 31 31 31 31 31 31 30 30 31 31 31 31 30 30 29 29 29 29 29 29 29 29 29 29 29 29 29 30 30 30 30 30 30 29
25 24 23 23 23 22 22 21 21 21 21 20 20 20 21 21 21 22 22 22 22 23 23 24 25 27 28 29 28 28 29 29 28 28 29 29 29 30 31 31 31 31 31 31 31 31 31 31 31 32 32 32 32 32 32 32 31 31 31 32 32 31 31 31 30 30 30 30 30 30 30 30 30 30 30 30 31 31 31 31 31 31 31 30 30
27 26 26 26 26 25 25 24 23 23 22 22 21 21 21 21 21 22 22 22 22 22 23 23 24 25 27 28 29 28 28 28 29 29 29 29 29 29 30 31 31 31 32 32 32 32 32 31 32 32 32 32 32 32 32 32 32 32 32 32 32 32 31 31 31 31 30 30 30 31 31 31 31 31 32 32 32 32 32 32 32 32 31 31 31
28 28 28 28 28 28 27 27 26 25 25 24 23 23 22 22 22 22 22 22 23 23 23 24 23 24 25 26 27 28 28 28 28 29 30 30 30 30 31 31 31 32 32 32 32 33 33 33 32 32 32 33 33 33 32 32 33 33 33 33 32 32 32 32 32 32 31 31 32 32 32 32 32 32 32 32 32 33 33 33 33 32 32 31 31
29 30 30 30 30 30 30 29 28 28 27 26 26 25 24 24 23 23 23 24 24 24 25 25 25 25 25 26 26 27 28 28 28 28 29 30 30 31 31 31 32 32 32 32 32 33 34 34 34 34 33 33 33 33 33 33 33 33 33 33 33 33 33 34 34 33 33 33 33 33 33 33 33 33 33 33 33 33 33 33 33 33 32 31 31
29 30 30 31 31 31 32 31 31 30 29 28 28 28 27 26 26 25 25 26 26 26 26 26 26 26 27 27 27 27 27 28 28 28 29 30 30 30 31 31 31 31 31 32 32 33 33 33 34 35 35 35 35 34 34 34 34 34 34 34 34 34 34 34 34 34 34 34 34 34 34 33 33 33 33 34 34 33 33 34 33 33 33 32 32
30 30 30 31 31 32 32 33 32 32 31 31 31 30 30 29 29 29 28 28 28 28 27 27 27 27 27 27 28 28 28 28 28 28 29 29 30 30 30 31 31 31 31 31 31 32 32 32 33 34 35 35 36 36 35 35 35 35 35 34 34 34 34 34 34 35 35 35 35 35 35 34 34 34 34 35 35 34 34 34 33 33 32 32 32
31 31 31 31 31 32 32 33 33 33 33 33 33 33 33 32 32 32 31 30 30 29 29 29 29 29 28 28 28 29 29 30 30 30 30 30 31 31 31 32 32 32 32 32 32 32 31 31 32 32 33 34 35 35 35 35 35 35 34 34 34 34 34 34 34 35 35 36 36 36 36 36 35 35 35 35 35 35 34 33 33 33 32 32 31
32 32 32 32 32 33 33 33 33 34 34 35 35 35 35 35 34 34 34 33 33 32 31 32 32 32 31 30 30 30 30 31 31 32 32 32 32 33 33 33 33 34 34 34 33 33 32 32 32 32 33 33 34 34 34 34 34 34 34 34 34 34 34 34 34 34 35 35 36 36 36 36 35 35 35 35 35 34 33 33 32 31 31 31 31
32 33 33 33 34 34 34 35 35 35 35 35 35 35 36 36 36 36 35 36 36 35 35 34 34 34 33 33 32 32 32 32 32 32 33 33 34 35 35 35 35 35 35 35 34 34 33 33 33 33 33 33 33 33 33 33 33 34 34 34 34 34 34 33 33 33 33 34 35 35 35 35 35 35 34 34 34 34 34 33 33 31 31 30 30
33 33 34 34 35 35 35 35 36 36 36 35 35 36 36 37 37 37 37 37 37 38 37 37 36 36 35 35 34 33 33 33 33 33 33 34 35 36 36 36 36 36 36 36 36 35 35 35 34 34 34 34 33 33 33 33 33 33 33 33 34 35 34 34 34 34 33 34 35 35 35 35 35 34 34 34 34 34 34 34 34 33 32 31 31
33 34 34 35 35 36 36 36 36 37 37 37 37 37 37 37 37 37 37 38 38 38 38 38 38 38 37 36 36 35 35 34 34 34 34 34 34 35 36 36 37 37 37 37 37 37 36 36 36 35 35 34 34 33 33 33 32 32 32 33 34 34 34 34 34 34 34 34 35 35 35 35 34 34 34 34 34 34 34 34 34 33 33 32 32
34 34 35 35 36 37 37 37 37 37 37 37 37 37 37 37 37 37 37 38 39 39 39 39 39 39 38 37 37 37 37 36 36 35 35 35 34 35 35 36 36 36 37 37 37 37 37 37 37 36 36 35 34 34 33 33 33 32 32 32 32 32 33 33 34 34 34 34 34 35 35 35 35 35 35 35 34 34 34 34 33 33 33 33 33
34 35 35 36 36 37 37 37 37 37 37 37 36 37 37 37 38 38 39 40 40 40 41 40 39 39 39 39 39 38 38 38 37 37 36 36 35 35 35 35 35 35 35 36 36 37 37 37 37 37 37 36 36 35 35 34 34 34 34 33 33 32 32 33 33 34 34 34 34 34 35 36 37 37 36 36 35 34 33 33 33 33 33 33 33
34 34 35 36 37 37 38 38 38 38 38 38 38 38 39 39 39 40 40 41 41 41 42 41 40 41 41 40 40 39 39 39 39 38 38 37 36 35 35 34 34 34 34 35 35 36 36 37 37 37 37 37 37 36 36 36 35 35 34 34 34 33 33 33 34 34 35 35 35 35 35 36 37 37 37 37 37 36 34 34 33 34 34 33 34
34 34 35 36 37 38 39 39 40 40 40 40 39 39 40 40 41 41 42 42 43 43 42 42 42 42 41 41 40 40 40 41 40 40 39 39 38 37 36 35 35 34 34 34 35 35 35 35 36 36 36 36 36 36 36 36 36 36 35 35 35 34 34 34 34 35 36 36 36 36 36 36 37 37 37 37 37 37 36 35 35 36 36 36 35
34 34 35 36 36 37 38 39 40 40 40 40 40 41 41 41 42 42 42 43 43 43 42 42 42 42 42 41 41 40 41 42 42 42 41 40 40 39 38 37 36 35 35 35 35 35 35 35 35 35 34 34 34 35 35 35 35 35 35 35 35 35 34 34 34 35 36 36 36 36 36 36 36 37 37 37 37 37 37 36 36 36 37 37 37
35 36 36 36 37 37 38 39 39 40 41 41 41 41 42 42 42 42 43 43 43 43 43 43 43 43 43 43 42 42 42 42 42 42 42 41 41 40 40 39 38 37 36 36 36 36 36 36 36 35 35 34 34 34 35 35 34 34 34 34 34 34 34 34 34 34 35 35 35 35 35 35 35 35 36 36 37 37 37 37 37 37 37 38 38
36 37 38 38 38 38 39 40 40 41 41 42 42 42 42 43 43 44 44 44 44 44 44 44 44 44 44 44 44 43 43 42 42 43 42 42 42 41 41 40 40 39 38 38 37 37 37 37 37 36 36 35 35 35 35 35 35 35 35 35 35 34 34 34 33 33 33 34 34 34 34 34 34 34 34 35 36 36 37 38 38 38 38 38 39
36 37 38 39 40 40 40 41 41 42 42 43 43 43 44 44 44 45 45 45 45 45 45 45 45 45 45 45 45 45 44 44 43 43 43 43 42 42 42 41 41 41 40 40 39 38 38 38 37 37 37 36 36 36 36 36 36 36 36 35 35 35 35 35 34 34 34 33 33 33 33 33 33 33 33 34 34 35 35 36 37 37 37 38 38
36 37 38 39 40 40 41 42 43 43 44 44 44 44 45 45 45 45 46 46 46 46 46 46 46 46 46 46 46 45 45 45 44 44 44 43 43 43 43 42 42 42 42 41 41 40 39 39 38 38 38 38 37 37 37 37 37 37 37 37 36 36 36 35 35 35 35 35 34 34 34 33 33 33 33 34 34 34 34 34 35 36 36 37 37
35 36 37 38 39 40 41 42 43 44 44 45 45 45 45 45 46 46 47 47 47 47 46 46 46 46 46 46 46 46 45 45 45 45 45 44 44 43 43 43 43 43 43 43 42 42 41 40 40 39 38 38 38 38 38 38 38 38 38 38 38 38 37 36 36 36 36 36 36 36 36 36 36 36 36 36 36 36 35 35 35 36 37 37 37
35 36 37 38 39 40 41 42 43 44 44 45 46 46 46 46 46 46 47 47 47 47 47 46 46 46 46 46 46 45 45 46 46 46 46 45 45 44 44 44 44 44 44 43 43 43 42 42 41 40 40 39 38 38 38 38 38 38 38 39 39 39 39 38 38 37 37 37 37 37 38 38 38 39 39 39 39 38 37 37 37 37 38 38 38
35 36 37 37 38 39 40 40 41 42 43 44 45 45 46 46 46 46 46 47 47 46 46 46 46 46 45 45 45 45 45 46 46 46 46 46 46 45 45 44 44 44 44 44 44 44 43 43 42 42 41 40 39 38 38 38 37 37 37 38 39 40 40 40 39 39 39 39 38 38 38 39 39 40 40 40 40 40 39 39 39 39 39 40 40
35 35 36 37 37 38 38 39 40 41 42 43 44 44 45 45 46 46 46 46 46 46 46 46 46 46 46 46 45 45 45 45 45 45 45 46 46 46 45 45 45 44 44 44 44 44 44 43 43 42 42 41 40 40 39 39 38 37 37 37 37 38 40 40 41 40 40 40 40 40 39 39 39 39 40 39 39 40 40 40 40 40 40 40 40
34 34 35 35 36 36 37 37 38 39 40 41 42 43 43 43 44 44 45 45 45 45 45 45 45 46 45 45 45 45 45 45 45 45 45 45 46 46 45 45 45 45 45 45 44 44 44 44 43 43 43 42 42 41 40 40 39 39 38 37 37 37 38 40 41 41 41 41 41 41 40 40 39 39 39 39 39 39 39 39 39 39 39 39 39
33 33 33 34 34 35 35 36 36 37 38 38 39 40 41 41 42 42 43 43 43 43 44 44 44 45 45 45 44 44 44 45 45 45 45 45 46 46 46 46 46 45 45 45 45 45 44 44 44 44 43 43 43 42 41 41 40 40 39 38 38 38 38 39 40 40 41 41 41 41 41 41 40 40 39 39 39 39 39 39 39 39 39 39 39
32 33 33 33 33 33 33 34 34 34 35 36 36 37 38 39 39 40 42 42 43 43 43 43 44 44 44 44 44 44 44 44 44 44 44 45 45 45 45 45 45 45 45 45 45 45 45 44 44 44 43 43 43 43 42 42 41 40 40 39 39 39 39 38 38 39 39 40 40 40 40 40 40 41 40 40 40 40 39 39 39 39 39 39 39
31 31 32 32 32 32 32 32 32 32 32 33 34 34 35 36 37 38 39 40 41 41 41 42 42 43 43 44 44 44 44 44 43 43 43 43 43 44 44 45 45 45 45 45 45 45 44 44 44 43 43 42 42 42 42 42 41 41 41 40 40 40 39 39 38 38 38 38 38 38 38 39 39 39 39 39 39 39 39 39 38 38 38 37 37
31 31 31 31 31 30 30 29 29 29 30 30 31 32 32 33 34 35 36 36 37 38 39 39 40 41 41 42 42 42 42 42 42 42 42 42 42 42 43 43 44 44 44 44 44 44 44 44 43 43 42 42 41 41 41 40 40 40 41 41 40 40 39 39 38 38 38 37 37 36 36 36 36 36 36 37 37 37 37 36 36 36 35 34 34
Wind_Direction
212 213 213 212 212 212 212 213 212 212 212 213 213 213 213 212 211 210 210 210 208 207 209 211 211 211 210 212 212 210 211 211 210 210 212 214 212 213 214 213 216 218 219 220 220 220 223 224 224 224 223 222 220 221 224 227 225 220 221 225 227 227 227 229 233 236 241 245 247 251 257 262 264 266 271 279 282 284 287 290 294 298 301 304 307
214 217 218 216 214 214 214 214 215 215 215 215 216 216 215 216 215 214 213 214 212 210 211 213 214 214 214 215 216 216 217 216 215 216 218 219 219 220 221 219 221 222 223 226 227 228 230 230 230 231 229 228 226 224 224 227 230 229 228 231 234 233 232 235 239 241 245 250 254 256 260 263 265 268 272 276 280 284 287 290 292 295 299 303 306
217 220 220 218 215 215 215 216 217 217 217 217 217 217 218 218 218 217 216 217 217 215 215 216 218 218 218 218 219 221 221 220 221 222 222 224 224 226 227 226 227 229 230 232 234 235 236 235 234 234 233 233 232 229 227 228 232 235 237 237 237 239 239 240 242 245 249 254 257 258 261 265 267 269 272 276 280 284 287 289 292 294 298 302 305
222 222 222 220 217 214 215 217 218 218 219 219 218 219 219 220 220 219 219 220 221 220 219 220 221 223 223 222 223 224 225 225 225 226 227 229 229 230 231 231 232 233 235 237 238 237 237 238 237 236 235 234 234 233 231 231 231 235 241 242 241 243 244 243 245 248 250 254 257 259 261 266 268 271 274 278 282 284 286 289 291 294 298 301 303
224 224 224 224 219 214 215 218 220 221 221 221 221 221 221 222 222 222 222 222 224 224 223 223 224 225 226 227 227 227 227 228 230 230 231 233 234 234 235 236 236 236 238 240 240 239 238 240 240 239 238 236 235 236 236 235 234 236 240 243 244 244 245 246 248 250 251 256 260 263 265 267 270 273 276 280 283 285 287 289 292 296 298 301 303
225 225 226 227 222 217 216 219 221 223 224 223 223 223 224 225 225 225 225 225 225 226 226 227 227 228 228 229 229 229 230 231 233 234 235 236 238 238 238 239 241 241 240 240 240 241 241 242 243 242 240 240 239 238 239 239 239 240 241 243 245 247 247 249 251 253 255 258 263 268 270 271 273 276 279 282 284 286 289 292 295 297 298 300 303
227 226 228 230 227 221 219 221 223 225 227 227 226 225 226 227 228 229 229 228 228 228 228 229 230 230 231 231 231 232 232 233 235 237 238 238 239 241 241 241 243 244 245 243 243 243 244 245 246 245 244 244 243 242 241 242 243 243 244 245 248 250 251 253 255 256 259 261 264 268 271 274 276 279 282 284 286 289 291 293 294 295 297 299 301
229 228 231 234 233 228 223 224 226 227 228 229 228 227 227 228 230 232 232 231 231 231 230 230 231 232 232 233 233 233 234 235 236 238 240 240 240 241 243 244 244 246 247 247 247 247 247 247 248 247 248 248 248 247 245 245 245 247 247 248 250 252 254 256 257 259 261 263 265 268 272 275 277 280 283 286 288 290 291 291 291 294 296 297 299
231 229 232 234 235 234 230 230 231 230 229 230 230 230 229 229 230 233 235 234 233 234 233 232 232 232 233 233 234 235 236 237 238 239 240 241 241 242 243 245 246 247 248 249 249 248 248 249 249 249 249 249 250 250 250 249 249 251 252 253 253 254 256 258 259 261 263 265 267 270 273 275 277 280 283 285 287 288 289 289 290 292 295 296 297
231 229 230 232 234 236 236 236 235 233 231 231 232 232 232 231 231 233 237 236 234 234 234 234 234 234 234 234 234 235 237 239 240 240 240 241 242 243 244 245 247 248 249 250 250 249 249 250 251 250 250 251 252 253 254 254 253 254 255 255 256 257 258 259 260 261 263 265 268 271 273 275 278 280 281 284 286 287 288 288 289 291 293 294 296
231 230 232 234 237 239 238 237 237 235 234 233 233 233 234 234 234 233 236 238 236 235 234 234 235 236 236 235 235 235 237 239 240 241 241 242 242 244 245 246 248 249 250 251 252 252 251 251 252 252 252 252 253 254 255 256 256 256 256 256 257 257 258 259 260 262 263 265 267 270 272 275 278 280 282 284 285 286 287 288 288 290 291 292 295
234 236 238 240 242 242 240 239 238 237 237 236 235 234 234 235 236 235 236 238 239 238 237 236 236 237 237 238 237 237 238 239 240 241 242 243 243 245 246 247 248 250 251 251 253 254 254 254 254 254 253 253 253 254 255 256 256 256 257 257 258 259 260 261 262 264 265 266 268 269 271 275 278 280 282 283 285 286 287 287 287 288 290 291 294
239 241 244 246 246 244 242 240 239 238 238 238 236 235 235 237 238 238 237 238 239 239 239 238 238 238 238 238 239 240 240 239 239 241 242 244 245 246 247 248 249 250 251 252 253 253 254 255 255 255 255 254 254 255 256 257 257 257 257 258 259 261 262 263 264 265 266 267 268 269 272 275 277 279 282 283 284 285 285 286 287 288 289 291 293
245 246 248 249 249 247 244 241 241 241 240 241 239 238 239 240 239 239 239 239 240 240 239 238 239 240 240 239 239 241 242 242 241 241 242 244 245 247 249 250 250 251 252 252 253 253 254 255 255 256 257 256 256 256 256 257 258 259 258 258 259 261 262 263 264 265 267 269 269 271 273 275 276 278 281 283 283 284 285 286 288 288 289 291 293
249 249 250 252 251 249 247 245 244 244 244 244 244 243 242 241 240 239 239 240 241 241 240 240 240 242 242 242 241 241 242 243 243 243 243 243 244 246 248 250 251 253 253 253 254 254 254 254 255 256 257 258 258 259 259 259 259 260 261 260 260 261 261 262 264 265 267 269 271 273 275 277 278 279 280 281 281 283 284 286 288 289 291 292 294
250 249 250 252 252 250 249 247 246 246 246 246 245 246 245 243 241 240 240 241 242 242 242 242 241 242 243 244 244 244 243 243 243 244 245 245 246 246 247 248 250 252 253 254 255 255 255 255 256 256 257 258 258 259 260 261 261 262 263 264 264 264 264 264 265 265 267 269 271 274 276 277 278 279 280 280 281 283 284 286 288 289 290 291 292
252 251 251 252 253 251 250 250 249 248 248 248 247 247 246 244 244 244 243 244 245 245 245 244 242 242 243 244 245 247 247 246 245 245 247 248 248 248 248 248 249 250 252 254 255 255 256 256 256 257 257 258 258 258 259 260 260 261 263 264 266 267 267 268 268 268 268 269 270 272 275 277 278 279 280 280 281 283 283 284 286 288 289 290 291
253 253 253 254 253 253 253 253 253 251 250 250 250 249 247 246 247 248 247 246 246 247 247 246 244 243 243 244 245 247 248 248 247 248 249 250 251 251 251 251 251 251 252 253 254 255 255 256 256 257 258 258 258 258 258 259 260 261 262 263 264 265 267 269 270 270 270 270 271 272 273 275 277 278 279 279 280 281 281 282 284 286 286 287 289
256 255 254 254 254 255 256 257 259 256 253 251 250 249 249 248 249 250 248 247 248 248 248 247 246 245 245 245 246 247 247 248 248 249 250 250 251 253 253 253 252 253 253 253 254 255 256 256 257 257 259 260 260 260 260 260 261 262 263 263 263 264 267 268 269 270 271 271 272 273 274 275 276 277 278 278 279 279 279 281 283 283 284 285 286
258 257 256 255 255 256 257 258 260 260 257 254 253 252 251 250 250 251 250 249 249 249 249 248 247 247 247 247 247 247 247 248 248 249 250 250 251 252 253 253 252 253 253 254 254 255 256 257 258 258 259 260 261 262 262 262 263 264 264 264 263 265 268 269 269 269 270 271 272 273 274 274 275 276 276 277 278 278 279 280 282 282 282 283 284
258 258 258 257 257 257 257 258 259 259 259 258 257 256 254 251 250 252 252 251 251 251 252 250 248 247 247 248 248 247 247 248 249 249 251 251 250 251 252 254 254 254 254 255 255 256 257 258 259 259 260 261 262 263 263 263 264 265 265 265 265 266 268 269 269 270 270 271 272 272 273 274 275 275 276 277 277 278 278 279 280 281 281 281 282
258 259 258 258 259 258 257 258 259 259 260 260 259 259 259 255 252 252 253 253 252 253 253 252 250 248 248 248 249 249 248 248 249 250 250 251 252 252 253 255 255 256 256 256 257 257 258 259 260 260 261 261 262 263 264 264 265 265 266 266 267 267 268 269 269 270 270 270 271 272 272 273 274 275 276 277 277 278 278 279 279 279 279 279 279
258 259 258 257 258 259 259 260 260 259 259 259 260 261 260 257 254 253 253 253 253 252 253 253 252 251 250 250 250 250 249 248 249 250 251 252 253 253 254 255 256 257 257 257 258 259 259 259 260 261 261 262 262 263 264 265 266 266 266 267 267 268 268 269 269 269 270 270 271 271 271 272 273 274 275 276 276 277 278 278 278 278 279 279 278
258 258 257 256 257 258 259 260 261 260 259 259 260 260 260 258 256 254 253 252 252 252 253 254 254 253 251 250 250 250 250 249 250 251 252 253 254 255 256 256 257 257 258 259 259 260 259 260 261 262 262 263 263 264 265 266 267 267 267 268 268 269 269 269 268 269 269 269 270 271 271 272 273 273 274 274 275 276 277 277 277 277 278 278 277
257 257 256 256 257 257 258 259 259 259 259 259 259 258 258 258 257 255 253 253 253 253 254 255 255 255 253 253 252 252 251 251 251 252 253 254 256 256 256 257 258 259 259 260 260 260 260 260 261 262 263 264 264 264 265 266 267 268 268 268 268 268 268 268 268 268 268 268 269 270 271 272 273 273 274 275 275 275 275 275 275 276 276 276 276
258 258 257 256 256 257 257 258 258 257 257 257 256 256 256 256 256 255 255 256 256 255 256 256 256 256 256 255 255 254 254 253 253 253 254 256 257 258 258 258 259 260 261 262 261 261 261 261 261 261 262 263 263 264 265 266 267 268 269 269 268 267 267 267 267 267 267 268 269 270 271 272 272 273 274 275 275 275 275 275 274 274 274 274 273
260 259 258 257 257 256 256 257 257 256 255 254 254 255 256 255 255 256 257 257 257 257 258 257 257 257 257 257 256 256 256 256 256 255 255 256 258 259 259 260 260 262 263 263 263 263 262 262 261 261 261 262 263 264 266 266 266 267 269 269 268 267 267 267 266 266 267 268 269 270 271 271 271 272 273 273 274 275 275 275 274 273 272 272 271
261 261 260 259 258 257 256 256 256 255 254 253 254 255 256 256 256 256 256 257 257 258 258 258 257 257 257 258 257 257 257 258 257 257 256 257 258 259 259 260 261 262 264 265 265 265 264 264 263 262 262 262 263 264 265 266 266 267 268 269 268 267 267 267 267 267 267 268 268 269 270 270 271 271 272 272 273 274 274 274 273 273 272 271 270
262 262 261 260 258 257 257 256 255 255 254 254 255 255 256 256 256 256 256 255 256 256 257 257 257 257 257 258 257 257 257 258 257 257 258 259 260 260 260 261 262 263 264 265 266 266 266 266 266 265 264 264 264 265 265 265 266 266 266 267 267 267 267 268 268 268 268 268 268 268 269 270 270 271 271 271 272 272 272 272 272 272 271 269 269
263 262 262 261 259 258 258 257 256 256 256 256 256 256 256 256 255 255 255 255 256 255 255 255 256 257 257 258 258 258 258 258 259 259 259 259 259 260 261 262 263 264 264 265 265 265 266 266 266 266 266 265 265 265 266 266 265 265 266 266 266 266 267 268 270 270 270 269 268 268 268 268 269 269 269 269 269 270 269 270 270 270 270 268 267
264 263 262 262 261 260 259 259 258 257 257 257 256 257 257 257 256 255 255 256 256 256 256 256 256 256 256 257 258 258 259 260 261 261 261 260 260 260 262 263 263 264 264 264 263 264 265 265 265 266 266 266 266 266 267 267 266 266 266 266 265 265 266 268 270 270 270 268 267 268 268 268 268 267 267 267 268 268 268 269 269 269 269 268 267
264 263 263 263 262 261 261 260 260 258 257 257 257 257 258 258 258 257 256 256 257 257 257 257 257 257 256 255 256 257 258 260 262 262 262 262 261 261 262 263 263 263 264 263 262 263 264 264 265 265 266 266 266 267 267 267 267 267 266 266 265 265 266 267 268 269 269 268 268 268 268 268 267 267 267 266 266 266 267 269 269 268 269 268 268
265 264 263 263 263 262 261 262 261 259 258 258 259 259 258 258 257 257 258 258 257 258 258 258 258 258 257 255 254 255 257 259 260 261 262 262 263 263 263 264 264 263 263 263 262 262 262 263 264 264 265 266 266 267 267 267 268 267 267 267 267 266 266 266 267 267 268 268 269 268 268 268 267 266 266 266 266 265 266 267 267 267 267 268 268
265 264 263 263 263 262 262 262 262 260 259 259 259 259 258 257 257 257 258 258 259 259 259 259 258 257 257 256 255 255 257 258 258 259 261 262 263 264 265 265 265 264 263 263 262 262 262 262 263 264 265 265 266 266 266 267 267 268 268 268 268 268 267 267 267 266 267 268 269 268 268 267 267 266 266 266 266 266 266 266 264 264 264 265 266
266 265 264 263 263 262 262 262 262 261 260 260 259 259 259 259 258 259 258 258 259 260 260 259 258 257 257 257 257 256 256 257 258 259 260 261 263 265 265 265 265 265 264 264 263 263 262 262 263 264 265 265 266 266 266 266 266 267 267 268 269 269 269 268 267 267 266 267 268 268 268 268 267 266 265 265 265 266 267 266 264 264 264 265 266
267 266 265 264 263 263 262 262 261 261 260 260 260 260 260 260 259 259 259 259 259 260 259 258 258 258 258 257 256 256 256 258 259 260 261 262 263 264 264 265 265 265 265 264 264 264 263 263 263 264 265 265 266 266 265 265 265 265 265 266 267 269 269 269 268 267 267 267 268 268 269 269 268 266 266 264 263 264 266 266 265 265 266 267 267
269 268 267 266 265 264 263 262 261 261 260 260 260 260 260 260 260 260 259 259 260 259 258 258 258 259 258 257 256 256 257 259 260 260 261 262 262 262 262 263 264 264 264 264 264 264 265 264 264 265 265 266 266 266 265 265 265 265 265 266 267 268 270 269 268 267 267 268 269 268 269 269 268 267 266 265 263 262 265 266 266 266 266 267 267
271 270 269 268 267 266 264 263 262 261 261 260 260 260 260 261 261 260 260 259 259 258 258 258 258 258 258 257 257 257 258 258 259 260 261 262 262 261 261 261 262 263 264 264 265 265 265 265 265 265 265 266 266 266 266 266 266 266 266 266 267 267 268 268 267 267 267 268 268 268 268 268 268 266 265 265 263 263 264 265 265 265 266 266 266
272 272 271 271 269 268 266 265 263 262 261 260 260 260 260 260 260 260 260 259 259 258 258 258 258 258 257 257 258 258 258 258 259 260 260 261 261 261 261 261 261 262 262 263 264 265 266 266 266 266 266 266 266 266 267 267 267 266 266 267 267 267 267 267 267 267 266 267 267 267 267 268 268 266 265 265 265 264 264 265 265 265 266 266 267
273 272 272 272 270 269 267 266 264 263 262 261 261 261 260 260 260 259 259 259 259 259 259 259 259 258 258 258 258 258 259 259 259 259 260 260 260 260 261 261 261 261 261 262 263 264 265 266 266 266 266 266 267 267 267 267 267 266 266 266 267 266 266 266 267 267 267 267 267 267 267 267 268 267 266 266 267 267 266 265 266 266 266 267 268
274 273 273 272 271 269 268 266 265 263 263 262 261 261 260 260 260 259 259 259 259 259 259 259 259 258 258 258 258 259 259 259 259 259 259 260 260 260 260 261 261 261 261 262 262 263 263 264 265 265 265 266 266 267 267 267 267 266 266 265 265 265 265 265 266 266 266 266 266 266 266 267 267 266 266 267 268 269 268 267 267 268 268 269 270
276 275 274 273 272 270 269 267 266 264 263 263 262 261 261 260 260 259 259 259 258 258 258 258 259 259 258 258 258 259 259 259 259 259 259 259 259 260 260 260 260 261 261 262 262 262 262 263 264 264 264 265 265 266 267 267 267 266 266 265 265 265 265 265 265 265 265 265 265 265 265 265 266 266 266 267 269 271 270 269 269 269 270 271 271
278 276 275 274 272 271 270 268 266 265 264 263 262 262 261 261 260 260 259 259 258 258 258 258 258 258 257 257 258 258 259 259 259 260 260 260 260 260 260 260 260 260 261 261 261 261 262 262 263 263 264 264 264 265 266 266 267 266 266 265 265 265 265 265 265 265 266 265 265 264 264 265 265 266 267 267 269 270 271 270 270 269 270 271 272
280 278 276 274 273 272 270 269 267 266 265 264 263 262 262 261 261 261 260 259 258 258 258 257 256 256 256 256 257 258 258 259 259 260 260 261 260 260 260 260 260 261 261 260 260 260 261 262 262 263 263 263 263 263 264 265 265 266 266 266 265 265 265 265 265 265 265 266 265 265 265 265 266 267 268 268 269 269 270 270 269 269 270 271 271
281 279 278 276 274 273 271 270 268 267 266 265 264 263 262 262 261 261 260 259 259 258 257 256 256 255 255 256 257 257 258 259 259 260 260 260 260 260 260 260 260 261 261 261 260 260 260 260 261 262 262 262 262 262 263 263 264 265 266 266 266 265 265 265 265 265 265 265 266 266 266 266 266 267 268 268 268 268 269 270 270 270 270 270 271
283 281 279 278 276 275 273 271 269 268 266 265 265 264 263 262 261 260 260 259 258 257 257 256 255 255 255 255 256 257 258 258 258 259 259 259 260 260 260 261 261 261 261 261 261 260 260 260 260 260 261 261 262 262 262 263 263 264 265 266 266 266 265 265 265 265 265 265 266 266 266 266 266 266 266 267 267 268 269 270 270 270 270 270 270
284 283 281 279 278 276 275 273 272 270 268 266 265 264 263 262 261 260 259 258 257 257 256 255 255 254 255 255 255 256 257 257 258 258 258 258 259 259 259 260 261 261 261 261 260 260 260 260 259 259 260 260 261 261 262 262 263 263 264 265 266 266 266 266 266 265 265 265 265 265 265 266 266 266 266 266 267 268 269 270 270 270 270 270 270
285 284 282 280 279 278 276 275 274 272 269 267 266 265 264 263 261 260 258 257 257 256 256 255 254 254 254 254 254 255 256 256 257 257 258 258 258 258 258 259 259 260 260 260 260 260 260 259 259 259 259 260 260 260 261 262 262 263 264 264 265 265 267 267 266 265 265 265 264 264 264 265 265 265 266 266 267 267 269 270 270 270 270 270 271
287 285 283 281 280 279 278 277 275 273 270 268 266 265 264 263 261 260 258 258 258 258 257 256 254 253 253 253 253 254 255 256 257 257 257 257 257 257 257 257 258 258 259 259 259 259 259 259 259 259 259 259 260 260 260 261 262 263 264 265 265 266 267 267 266 265 265 265 265 264 264 264 264 265 265 266 266 267 268 270 270 270 270 270 272
288 286 283 281 280 279 278 277 276 274 271 269 267 266 264 263 261 260 259 258 258 258 257 255 254 253 252 253 253 254 255 256 257 257 257 256 257 257 257 257 257 257 257 258 258 258 259 259 259 259 259 259 259 259 259 260 261 262 263 265 266 266 267 266 266 266 266 266 266 265 265 265 265 265 265 265 265 266 268 269 270 270 270 271 272
289 286 284 282 280 278 277 276 276 275 274 271 269 266 264 263 261 259 258 258 257 256 256 255 254 254 253 253 254 255 255 256 256 256 256 256 256 257 257 257 256 256 257 257 257 257 258 258 258 258 258 258 258 258 258 259 260 262 264 265 265 266 266 266 266 266 266 266 266 267 267 267 267 266 266 265 265 265 267 268 268 269 270 270 271